Tracking 33744 objects as of 14-Apr-2026
HD Live streaming from Space Station
objects crossing your sky now

STARLINK-36752

Track STARLINK-36752 now!
10-day predictions
STARLINK-36752 is classified as:


NORAD ID: 67724
Int'l Code: 2026-026D
Perigee: 472.3 km
Apogee: 473.1 km
Inclination: 97.3 °
Period: 93.9 minutes
Semi major axis: 6843 km
RCS: Unknown
Launch date: February 11, 2026
Source: United States (US)
Launch site: AIR FORCE WESTERN TEST RANGE (AFWTR)
Your satellite tracking list
Your tracking list is empty




NASA's NSSDC Master Catalog

Two Line Element Set (TLE):
1 67724U 26026D   26103.86350706  .00009350  00000-0  29158-3 0  9994
2 67724  97.2957 157.9270 0000577 207.7066 152.4146 15.33446282  9511
Source of the keplerian elements: AFSPC